FW6831 Weather Reports


Display with metric or nautical units.
time (UTC)temp
F
wind
direction
speed
MPH
gust
MPH
rain 1hr
in
rain 24hr
in
rain mn
in
humidity
%
barometer
mb
20260831145043 55 0 0.0 0.0 0.00 0.00 0.00 95 1029.2
20260831144601 55 0 0.0 0.0 0.00 0.00 0.00 95 1029.2
20260831144044 56 0 0.0 0.0 0.00 0.00 0.00 94 1029.2
20260831143544 56 0 0.0 0.0 0.00 0.00 0.00 94 1029.3
20260831143102 56 0 0.0 0.0 0.00 0.00 0.00 94 1029.4
20260831142544 56 0 0.0 0.0 0.00 0.00 0.00 94 1029.4
20260831142047 56 0 0.0 0.0 0.00 0.00 0.00 94 1029.4
20260831141607 56 0 0.0 0.0 0.00 0.00 0.00 94 1029.5
20260831141043 56 0 0.0 0.0 0.00 0.00 0.00 94 1029.6
20260831140544 56 0 0.0 0.0 0.00 0.00 0.00 94 1029.7
20260831135544 57 0 0.0 0.0 0.00 0.00 0.00 93 1029.7
20260831135044 57 0 0.0 0.0 0.00 0.00 0.00 93 1029.7
20260831134557 57 0 0.0 0.0 0.00 0.00 0.00 93 1029.8
20260831134043 57 0 0.0 0.0 0.00 0.00 0.00 93 1029.8
20260831133543 57 0 0.0 0.0 0.00 0.00 0.00 92 1029.9
20260831133100 58 0 0.0 0.0 0.00 0.00 0.00 92 1029.9
20260831132544 58 0 0.0 0.0 0.00 0.00 0.00 92 1029.9
20260831132044 58 0 0.0 0.0 0.00 0.00 0.00 92 1029.9
20260831131603 58 0 0.0 0.0 0.00 0.00 0.00 91 1030.0
20260831131043 59 0 0.0 0.0 0.00 0.00 0.00 91 1030.0
20260831130544 59 0 0.0 0.0 0.00 0.00 0.00 90 1030.0
20260831125544 59 0 0.0 0.0 0.00 0.00 0.00 90 1030.0
20260831125044 60 0 0.0 0.0 0.00 0.00 0.00 90 1030.0
20260831124559 60 0 0.0 0.0 0.00 0.00 0.00 90 1030.0
20260831124043 60 0 0.0 0.0 0.00 0.00 0.00 89 1030.1
20260831123543 60 0 0.0 0.0 0.00 0.00 0.00 89 1030.1
20260831123101 60 0 0.0 0.0 0.00 0.00 0.00 89 1030.1
20260831122543 61 0 0.0 0.0 0.00 0.00 0.00 88 1030.2
20260831122046 61 0 0.0 0.0 0.00 0.00 0.00 88 1030.3
20260831121559 61 0 0.0 0.0 0.00 0.00 0.00 88 1030.2
20260831121044 61 0 0.0 0.0 0.00 0.00 0.00 87 1030.2
20260831120545 61 0 0.0 0.0 0.00 0.00 0.00 88 1030.3
20260831120134 62 0 0.0 0.0 0.00 0.00 0.00 86 1030.3
20260831115545 62 0 0.0 0.0 0.00 0.00 0.00 87 1030.3
20260831115044 62 0 0.0 0.0 0.00 0.00 0.00 87 1030.4
20260831114600 63 0 0.0 0.0 0.00 0.00 0.00 87 1030.3
20260831114044 63 0 0.0 1.0 0.00 0.00 0.00 87 1030.4
20260831113544 63 0 0.0 1.0 0.00 0.00 0.00 87 1030.3
20260831113104 63 0 0.0 1.0 0.00 0.00 0.00 88 1030.3
20260831112543 62 0 0.0 1.0 0.00 0.00 0.00 88 1030.4
20260831112043 62 0 0.0 1.0 0.00 0.00 0.00 88 1030.4
20260831111600 62 0 0.0 1.0 0.00 0.00 0.00 88 1030.3
20260831111044 62 0 0.0 1.0 0.00 0.00 0.00 88 1030.3
20260831110544 61 0 0.0 1.0 0.00 0.00 0.00 89 1030.2
20260831110105 61 0 0.0 1.0 0.00 0.00 0.00 89 1030.3
20260831105544 61 0 0.0 0.0 0.00 0.00 0.00 88 1030.3
20260831105044 61 0 0.0 1.0 0.00 0.00 0.00 88 1030.2
20260831104607 61 0 0.0 1.0 0.00 0.00 0.00 88 1030.1
20260831104044 61 0 0.0 1.0 0.00 0.00 0.00 87 1030.1
20260831103543 61 0 0.0 1.0 0.00 0.00 0.00 87 1030.1
20260831103104 61 0 0.0 1.0 0.00 0.00 0.00 87 1030.0
20260831102544 61 0 0.0 1.0 0.00 0.00 0.00 87 1030.0
20260831102043 61 94 0.0 1.0 0.00 0.00 0.00 87 1029.9
20260831101610 61 0 0.0 1.0 0.00 0.00 0.00 87 1030.1
20260831101045 61 0 0.0 1.0 0.00 0.00 0.00 87 1029.9
20260831100545 61 0 0.0 0.0 0.00 0.00 0.00 86 1030.0
20260831100120 62 0 0.0 1.0 0.00 0.00 0.00 86 1029.9
20260831095544 62 0 0.0 1.0 0.00 0.00 0.00 86 1029.8
20260831095045 62 325 0.0 1.0 0.00 0.00 0.00 86 1029.7
20260831094602 62 0 0.0 3.0 0.00 0.00 0.00 86 1029.8
20260831094044 62 87 0.0 3.0 0.00 0.00 0.00 87 1029.8
20260831093545 61 0 0.0 0.0 0.00 0.00 0.00 86 1029.8
20260831093103 61 0 0.0 0.0 0.00 0.00 0.00 86 1029.7
20260831092544 61 0 0.0 0.0 0.00 0.00 0.00 85 1029.6
20260831092044 62 0 0.0 0.0 0.00 0.00 0.00 84 1029.5
20260831091606 62 327 0.0 1.0 0.00 0.00 0.00 84 1029.5
20260831091045 62 0 0.0 1.0 0.00 0.00 0.00 83 1029.5
20260831090545 63 0 0.0 4.0 0.00 0.00 0.00 83 1029.5
20260831090120 63 0 0.0 4.0 0.00 0.00 0.00 83 1029.5
20260831085544 63 0 0.0 2.0 0.00 0.00 0.00 83 1029.4
20260831085044 63 0 0.0 2.0 0.00 0.00 0.00 82 1029.5
20260831084609 63 0 0.0 2.0 0.00 0.00 0.00 82 1029.4
20260831084044 64 0 0.0 0.0 0.00 0.00 0.00 81 1029.3
20260831083543 64 0 0.0 3.0 0.00 0.00 0.00 81 1029.2
20260831083102 64 0 0.0 3.0 0.00 0.00 0.00 80 1029.3
20260831082545 64 131 0.0 3.0 0.00 0.00 0.00 80 1029.2
20260831082043 65 0 0.0 5.0 0.00 0.00 0.00 80 1029.1
20260831081609 65 0 0.0 5.0 0.00 0.00 0.00 79 1029.0
20260831081043 65 0 0.0 4.0 0.00 0.00 0.00 79 1029.1
20260831080543 65 0 1.0 4.0 0.00 0.00 0.00 79 1029.0
20260831080058 65 0 0.0 4.0 0.00 0.00 0.00 78 1029.1
20260831075544 65 0 0.0 4.0 0.00 0.00 0.00 78 1029.0
20260831075044 65 0 1.0 5.0 0.00 0.00 0.00 78 1028.9
20260831074557 65 38 1.0 5.0 0.00 0.00 0.00 78 1028.9
20260831074047 65 130 2.0 5.0 0.00 0.00 0.00 78 1028.8
20260831073544 65 86 1.0 4.0 0.00 0.00 0.00 77 1028.9
20260831073055 65 63 2.0 5.0 0.00 0.00 0.00 77 1028.9
20260831072543 65 102 2.0 8.0 0.00 0.00 0.00 77 1028.7
20260831072046 66 178 0.0 8.0 0.00 0.00 0.00 77 1028.9
20260831071614 66 44 1.0 8.0 0.00 0.00 0.00 77 1028.7
20260831071044 66 53 2.0 6.0 0.00 0.00 0.00 77 1028.7
20260831070545 66 56 2.0 6.0 0.00 0.00 0.00 77 1028.7
20260831070109 66 87 2.0 7.0 0.00 0.00 0.00 77 1028.6
20260831065543 66 132 3.0 10.0 0.00 0.00 0.00 77 1028.5
20260831065043 66 142 3.0 10.0 0.00 0.00 0.00 78 1028.5
20260831064557 66 112 3.0 10.0 0.00 0.00 0.00 77 1028.5
20260831064043 66 168 3.0 10.0 0.00 0.00 0.00 78 1028.5
20260831063543 67 100 3.0 10.0 0.00 0.00 0.00 78 1028.3
20260831063101 67 110 3.0 10.0 0.00 0.00 0.00 77 1028.3
20260831062546 67 165 3.0 12.0 0.00 0.00 0.00 77 1028.3
20260831062044 67 111 5.0 12.0 0.00 0.00 0.00 76 1028.2
20260831061610 68 96 4.0 12.0 0.00 0.00 0.00 75 1028.2
20260831061045 68 68 3.0 12.0 0.00 0.00 0.00 74 1028.0
20260831060543 68 170 3.0 12.0 0.00 0.00 0.00 73 1027.9
20260831060111 68 172 3.0 9.0 0.00 0.00 0.00 73 1027.8
20260831055545 68 94 4.0 9.0 0.00 0.00 0.00 72 1027.8
20260831055044 69 84 3.0 8.0 0.00 0.00 0.00 72 1027.6
20260831054603 69 45 2.0 14.0 0.00 0.00 0.00 71 1027.6
20260831054045 69 191 5.0 14.0 0.00 0.00 0.00 70 1027.7
20260831053545 69 185 5.0 12.0 0.00 0.00 0.00 70 1027.7
20260831053119 69 173 3.0 12.0 0.00 0.00 0.00 70 1027.6
20260831052544 69 123 6.0 11.0 0.00 0.00 0.00 70 1027.6
20260831052049 69 138 3.0 9.0 0.00 0.00 0.00 70 1027.5
20260831051607 70 149 4.0 9.0 0.00 0.00 0.00 69 1027.5
20260831051045 70 167 3.0 8.0 0.00 0.00 0.00 69 1027.7
20260831050547 69 97 4.0 11.0 0.00 0.00 0.00 70 1027.7
20260831050116 70 199 5.0 11.0 0.00 0.00 0.00 70 1027.8
20260831045543 70 79 4.0 9.0 0.00 0.00 0.00 69 1027.9
20260831045044 71 167 5.0 9.0 0.00 0.00 0.00 68 1027.8
20260831044557 71 173 3.0 11.0 0.00 0.00 0.00 70 1027.8
20260831044044 70 161 3.0 11.0 0.00 0.00 0.00 70 1027.8
20260831043544 71 139 5.0 10.0 0.00 0.00 0.00 70 1027.7
20260831043055 71 143 4.0 10.0 0.00 0.00 0.00 70 1027.9
20260831042544 72 98 3.0 9.0 0.00 0.00 0.00 69 1027.9
20260831042044 72 150 3.0 8.0 0.00 0.00 0.00 69 1027.8
20260831041603 72 212 1.0 10.0 0.00 0.00 0.00 69 1027.8
20260831041044 71 86 4.0 10.0 0.00 0.00 0.00 70 1028.0
20260831040543 70 123 5.0 11.0 0.00 0.00 0.00 70 1028.1
20260831040058 70 184 5.0 11.0 0.00 0.00 0.00 69 1028.0
20260831035543 71 169 5.0 9.0 0.00 0.00 0.00 70 1028.0
20260831035042 71 177 3.0 12.0 0.00 0.00 0.00 69 1028.1
20260831034555 71 136 4.0 12.0 0.00 0.00 0.00 68 1028.2
20260831034046 72 137 2.0 7.0 0.00 0.00 0.00 64 1028.0
20260831033544 72 122 1.0 5.0 0.00 0.00 0.00 63 1028.1
20260831033109 72 142 2.0 5.0 0.00 0.00 0.00 63 1028.0
20260831032547 72 94 3.0 10.0 0.00 0.00 0.00 62 1028.2
20260831032043 72 57 3.0 10.0 0.00 0.00 0.00 63 1028.3
20260831031606 73 162 4.0 10.0 0.00 0.00 0.00 61 1028.3
20260831031043 74 160 3.0 6.0 0.00 0.00 0.00 59 1028.2
20260831030543 74 203 2.0 6.0 0.00 0.00 0.00 60 1028.2
20260831030059 72 210 2.0 6.0 0.00 0.00 0.00 62 1028.3
20260831025543 71 102 3.0 13.0 0.00 0.00 0.00 62 1028.4
20260831025043 72 129 4.0 13.0 0.00 0.00 0.00 61 1028.4
20260831024555 72 141 6.0 12.0 0.00 0.00 0.00 61 1028.4
20260831024044 72 186 3.0 7.0 0.00 0.00 0.00 62 1028.5
20260831023544 72 188 0.0 5.0 0.00 0.00 0.00 63 1028.5
20260831023056 71 0 1.0 5.0 0.00 0.00 0.00 63 1028.7
20260831022543 71 164 2.0 7.0 0.00 0.00 0.00 63 1028.6
20260831022043 71 143 2.0 8.0 0.00 0.00 0.00 62 1028.7
20260831021552 72 184 2.0 8.0 0.00 0.00 0.00 62 1028.7
20260831021044 72 153 3.0 8.0 0.00 0.00 0.00 62 1028.8
20260831020542 72 203 4.0 7.0 0.00 0.00 0.00 62 1028.8
20260831020110 72 175 1.0 7.0 0.00 0.00 0.00 63 1028.7
20260831015543 72 163 3.0 8.0 0.00 0.00 0.00 62 1028.9
20260831015042 71 189 2.0 8.0 0.00 0.00 0.00 63 1029.0
20260831014555 71 150 5.0 8.0 0.00 0.00 0.00 62 1029.0
20260831014043 71 236 3.0 7.0 0.00 0.00 0.00 63 1029.0
20260831013543 70 0 1.0 7.0 0.00 0.00 0.00 63 1029.1
20260831013106 71 191 2.0 8.0 0.00 0.00 0.00 62 1029.2
20260831012544 71 203 1.0 9.0 0.00 0.00 0.00 62 1029.2
20260831012043 71 188 4.0 9.0 0.00 0.00 0.00 61 1029.4
20260831011559 72 162 2.0 6.0 0.00 0.00 0.00 62 1029.3
20260831011042 71 104 3.0 6.0 0.00 0.00 0.00 62 1029.3
20260831010543 71 186 1.0 7.0 0.00 0.00 0.00 63 1029.4
20260831010105 70 238 2.0 7.0 0.00 0.00 0.00 64 1029.4
20260831005543 70 89 1.0 7.0 0.00 0.00 0.00 65 1029.5
20260831005043 71 193 3.0 7.0 0.00 0.00 0.00 63 1029.7
20260831004603 71 150 4.0 7.0 0.00 0.00 0.00 64 1029.7
20260831004043 71 193 2.0 4.0 0.00 0.00 0.00 64 1029.6
20260831003545 70 207 0.0 3.0 0.00 0.00 0.00 65 1029.8
20260831003103 71 77 1.0 5.0 0.00 0.00 0.00 64 1029.8
20260831002543 70 41 2.0 5.0 0.00 0.00 0.00 64 1029.8
20260831002045 70 166 2.0 5.0 0.00 0.00 0.00 66 1030.0
20260831001558 70 93 2.0 5.0 0.00 0.00 0.00 65 1030.0
20260831001045 71 179 1.0 4.0 0.00 0.00 0.00 66 1030.0
20260831000545 70 0 1.0 4.0 0.00 0.00 0.00 67 1030.0
20260831000106 69 34 1.0 5.0 0.00 0.00 0.00 68 1030.1
20260830235542 69 207 2.0 5.0 0.00 0.00 0.00 68 1030.1
20260830235043 69 220 0.0 6.0 0.00 0.00 0.00 69 1030.1
20260830234601 68 158 1.0 6.0 0.00 0.00 0.00 70 1030.1
20260830234043 68 198 3.0 6.0 0.00 0.00 0.00 70 1030.1
20260830233543 67 183 3.0 5.0 0.00 0.00 0.00 71 1030.2
20260830233100 67 162 2.0 5.0 0.00 0.00 0.00 72 1030.2
20260830232546 67 192 1.0 5.0 0.00 0.00 0.00 72 1030.2
20260830232045 66 0 2.0 5.0 0.00 0.00 0.00 73 1030.2
20260830231558 66 0 1.0 5.0 0.00 0.00 0.00 74 1030.3
20260830231044 66 219 2.0 5.0 0.00 0.00 0.00 74 1030.3
20260830230543 66 191 1.0 7.0 0.00 0.00 0.00 75 1030.2
20260830225543 65 181 3.0 7.0 0.00 0.00 0.00 74 1030.3
20260830225047 66 210 1.0 4.0 0.00 0.00 0.00 75 1030.2
20260830224600 66 235 2.0 4.0 0.00 0.00 0.00 75 1030.2
20260830224046 66 0 0.0 2.0 0.00 0.00 0.00 77 1030.2
20260830223546 65 0 0.0 2.0 0.00 0.00 0.00 79 1030.0
20260830223059 64 0 0.0 3.0 0.00 0.00 0.00 79 1030.1
20260830222543 63 0 1.0 3.0 0.00 0.00 0.00 78 1030.0
20260830222045 63 0 0.0 3.0 0.00 0.00 0.00 79 1030.2
20260830221557 63 0 0.0 3.0 0.00 0.00 0.00 80 1030.0
20260830221046 62 0 0.0 3.0 0.00 0.00 0.00 83 1030.1
20260830220546 62 255 0.0 3.0 0.00 0.00 0.00 82 1030.2
20260830215546 61 259 2.0 5.0 0.00 0.00 0.00 83 1030.1
20260830215044 62 245 1.0 3.0 0.00 0.00 0.00 82 1030.1
20260830214601 62 226 0.0 1.0 0.00 0.00 0.00 84 1030.1
20260830214044 62 291 0.0 1.0 0.00 0.00 0.00 84 1029.9
20260830213547 62 0 0.0 0.0 0.00 0.00 0.00 87 1030.0
20260830213056 61 0 0.0 0.0 0.00 0.00 0.00 88 1029.9
20260830212547 60 0 0.0 0.0 0.00 0.00 0.00 93 1030.0
20260830212044 59 0 0.0 0.0 0.00 0.00 0.00 94 1030.0
20260830211620 58 0 0.0 0.0 0.00 0.00 0.00 95 1029.9
20260830211047 57 0 0.0 1.0 0.00 0.00 0.00 95 1029.8
20260830210547 56 0 0.0 1.0 0.00 0.00 0.00 95 1029.9
20260830210054 55 0 0.0 1.0 0.00 0.00 0.00 94 1029.8
20260830205543 54 0 0.0 1.0 0.00 0.00 0.00 95 1029.8
20260830205043 54 0 0.0 1.0 0.00 0.00 0.00 95 1029.9
20260830204559 53 316 0.0 1.0 0.00 0.00 0.00 95 1029.8
20260830204043 53 0 0.0 1.0 0.00 0.00 0.00 95 1029.6
20260830203543 53 316 0.0 1.0 0.00 0.00 0.00 95 1029.6
20260830203102 53 0 0.0 1.0 0.00 0.00 0.00 95 1029.5
20260830202543 52 0 0.0 1.0 0.00 0.00 0.00 95 1029.6
20260830202043 52 0 0.0 1.0 0.00 0.00 0.00 95 1029.5
20260830201607 52 316 0.0 1.0 0.00 0.00 0.00 94 1029.5
20260830201045 53 316 0.0 1.0 0.00 0.00 0.00 95 1029.4
20260830200545 52 316 0.0 1.0 0.00 0.00 0.00 95 1029.3
20260830200103 52 0 0.0 1.0 0.00 0.00 0.00 96 1029.3
20260830195546 52 316 0.0 1.0 0.00 0.00 0.00 95 1029.3
20260830195041 52 0 0.0 1.0 0.00 0.00 0.00 95 1029.2
20260830194556 52 317 0.0 1.0 0.00 0.00 0.00 96 1029.1
20260830194041 52 0 0.0 1.0 0.00 0.00 0.00 96 1029.1
20260830193545 51 6 0.0 1.0 0.00 0.00 0.00 96 1028.9
20260830193058 51 321 0.0 1.0 0.00 0.00 0.00 96 1029.0
20260830192540 51 309 1.0 1.0 0.00 0.00 0.00 96 1029.1
20260830192040 50 313 0.0 1.0 0.00 0.00 0.00 96 1029.0
20260830191603 51 311 0.0 1.0 0.00 0.00 0.00 96 1028.8
20260830191041 50 311 0.0 1.0 0.00 0.00 0.00 96 1028.9
20260830190541 50 314 0.0 1.0 0.00 0.00 0.00 96 1028.8
20260830185541 50 0 1.0 1.0 0.00 0.00 0.00 95 1028.9
20260830185042 50 314 1.0 1.0 0.00 0.00 0.00 95 1028.9
20260830184612 50 314 1.0 1.0 0.00 0.00 0.00 95 1028.8
20260830184044 50 0 0.0 1.0 0.00 0.00 0.00 96 1028.8
20260830183541 50 314 0.0 1.0 0.00 0.00 0.00 96 1028.7
20260830183056 50 314 0.0 1.0 0.00 0.00 0.00 95 1028.7
20260830182544 50 314 0.0 1.0 0.00 0.00 0.00 95 1028.8
20260830182046 50 314 1.0 1.0 0.00 0.00 0.00 95 1028.7
20260830181555 50 313 0.0 1.0 0.00 0.00 0.00 96 1028.6
20260830181042 50 314 0.0 1.0 0.00 0.00 0.00 96 1028.6
20260830180543 50 314 0.0 1.0 0.00 0.00 0.00 95 1028.6
20260830180109 50 314 1.0 1.0 0.00 0.00 0.00 95 1028.6
20260830175541 50 311 0.0 2.0 0.00 0.00 0.00 95 1028.7
20260830175041 50 311 1.0 2.0 0.00 0.00 0.00 95 1028.8
20260830174611 50 311 1.0 1.0 0.00 0.00 0.00 95 1028.7
20260830174043 50 313 1.0 1.0 0.00 0.00 0.00 95 1028.8
20260830173548 50 312 1.0 1.0 0.00 0.00 0.00 95 1028.7
20260830173129 50 307 1.0 1.0 0.00 0.00 0.00 95 1028.7
20260830172546 50 0 0.0 1.0 0.00 0.00 0.00 95 1028.8
20260830172041 50 314 1.0 1.0 0.00 0.00 0.00 95 1028.8
20260830171605 50 0 0.0 1.0 0.00 0.00 0.00 95 1028.8
20260830171041 50 310 0.0 2.0 0.00 0.00 0.00 94 1028.7
20260830170543 50 310 0.0 2.0 0.00 0.00 0.00 94 1028.8
20260830170109 51 310 1.0 2.0 0.00 0.00 0.00 94 1028.8
20260830165543 51 307 0.0 1.0 0.00 0.00 0.00 95 1028.9
20260830165043 51 323 0.0 3.0 0.00 0.00 0.00 94 1028.9
20260830164606 51 316 0.0 3.0 0.00 0.00 0.00 94 1028.9
20260830164043 51 257 1.0 3.0 0.00 0.00 0.00 95 1028.9
20260830163546 51 0 1.0 2.0 0.00 0.00 0.00 94 1029.1
20260830163100 51 273 0.0 0.0 0.00 0.00 0.00 94 1029.0
20260830162542 51 0 0.0 0.0 0.00 0.00 0.00 94 1029.1
20260830162045 51 0 0.0 0.0 0.00 0.00 0.00 94 1029.1
20260830161610 51 0 0.0 0.0 0.00 0.00 0.00 94 1029.1
20260830161045 52 0 0.0 0.0 0.00 0.00 0.00 94 1029.1
20260830160546 52 0 0.0 0.0 0.00 0.00 0.00 94 1029.0
20260830160107 52 0 0.0 0.0 0.00 0.00 0.00 94 1029.1
20260830155545 52 0 0.0 0.0 0.00 0.00 0.00 94 1029.3
20260830155045 52 0 0.0 0.0 0.00 0.00 0.00 95 1029.3
20260830154558 52 0 0.0 0.0 0.00 0.00 0.00 94 1029.3
20260830154045 52 0 0.0 0.0 0.00 0.00 0.00 95 1029.4
20260830153546 52 0 0.0 0.0 0.00 0.00 0.00 95 1029.4
20260830153105 52 0 0.0 0.0 0.00 0.00 0.00 95 1029.4
20260830152545 52 0 0.0 0.0 0.00 0.00 0.00 95 1029.5
20260830152042 52 0 0.0 0.0 0.00 0.00 0.00 95 1029.6
20260830151607 52 0 0.0 0.0 0.00 0.00 0.00 95 1029.4
20260830151045 52 0 0.0 0.0 0.00 0.00 0.00 94 1029.5
20260830150545 52 0 0.0 0.0 0.00 0.00 0.00 95 1029.5
20260830145543 52 0 0.0 0.0 0.00 0.00 0.00 94 1029.5